Volver al catálogo

DELTA 1 DEB

ActivoSSO
NORAD 42635·DEBRIS·🇺🇸 United States

Lanzado Jun 12, 1975 desde Vandenberg Space Force Base

Loading…

Próximos Pases (próximas 24 horas)

TLE

ActualizadoSource: Space-Track

Época: Sep 13, 2026, 14:49 UTC

1 42635U 75052LU  26256.61739764  .00000121  00000-0  23211-3 0  9999
2 42635  99.7637 170.1611 0045859  59.6617  58.4289 13.56867374634004

Sigue DELTA 1 DEB en tiempo real con AllMySat

Download on the App Store